Date,TemperatureHighF,TemperatureAvgF,TemperatureLowF,DewpointHighF,DewpointAvgF,DewpointLowF,HumidityHigh,HumidityAvg,HumidityLow,PressureMaxIn,PressureMinIn,WindSpeedMaxMPH,WindSpeedAvgMPH,GustSpeedMaxMPH,PrecipitationSumIn
2014-1-1,13,1,-12,-4,-9,-17,78,64,43,30.42,30.32,6,3,6,0.00
2014-1-2,18,4,-8,-2,-6,-15,78,62,35,30.38,30.30,6,3,6,0.00
2014-1-3,16,1,-16,11,-5,-21,83,75,65,34.52,29.69,19,4,19,0.00
2014-1-4,30,21,10,27,15,3,89,76,70,30.08,29.55,13,5,13,0.00
2014-1-5,10,0,-10,3,-9,-19,73,64,50,30.22,27.88,8,4,8,0.00
2014-1-6,-10,-17,-22,-19,-26,-33,68,61,46,30.10,30.02,13,6,13,0.00
2014-1-7,-1,-11,-21,-11,-19,-27,74,66,53,30.22,30.04,11,5,11,0.00
2014-1-8,93,-2,-12,71,-11,-17,80,65,43,30.41,29.42,6,2,6,0.00
2014-1-9,20,1,-20,10,-7,-25,81,69,41,29.96,29.60,10,2,10,0.00
2014-1-10,32,24,15,31,23,10,99,96,80,29.61,28.95,8,2,8,0.00
2014-1-11,32,29,27,31,28,25,99,96,89,29.18,28.90,0,0,0,0.00
2014-1-12,42,32,24,32,28,24,98,84,64,29.21,28.98,14,2,14,0.20
2014-1-13,38,33,23,32,27,17,88,79,65,29.19,28.98,9,4,11,0.07
2014-1-14,25,21,15,25,20,14,99,94,79,29.39,29.02,9,4,9,0.00
2014-1-15,17,12,8,14,9,3,95,86,66,29.53,29.14,12,3,12,0.00
2014-1-16,32,20,10,28,17,6,93,87,82,29.16,28.89,11,4,12,0.00
2014-1-17,33,16,7,22,12,4,93,84,60,29.41,29.16,7,3,7,0.00
2014-1-18,20,8,0,12,4,-3,89,83,65,29.40,29.24,8,2,8,0.00
2014-1-19,38,24,12,27,20,8,96,84,62,29.25,28.93,11,4,11,0.00
2014-1-20,28,13,0,27,8,-8,95,79,59,29.75,29.11,9,3,9,0.00
2014-1-21,14,-1,-10,-4,-10,-14,81,66,40,29.83,29.62,7,3,7,0.00
2014-1-22,9,1,-4,1,-6,-12,86,74,56,29.62,29.35,11,4,11,0.00
2014-1-23,14,0,-11,-3,-9,-18,78,66,43,29.99,29.62,10,5,10,0.00
2014-1-24,26,9,-12,24,3,-18,96,76,59,29.86,28.85,17,6,17,0.00
2014-1-25,27,10,-2,23,0,-12,89,62,44,29.27,28.84,11,6,13,0.00
2014-1-26,12,5,-2,8,-2,-12,86,75,60,29.21,28.80,13,4,13,0.00
2014-1-27,93,-8,-14,71,-18,-24,71,59,43,30.31,29.21,11,6,11,0.00
2014-1-28,1,-9,-20,-13,-18,-25,75,63,47,30.30,30.06,11,6,14,0.00
2014-1-29,21,6,-7,9,-5,-14,75,61,39,30.06,29.76,15,6,16,0.00
2014-1-30,28,23,11,25,16,4,97,76,59,29.89,29.50,14,4,14,0.00
2014-1-31,11,0,-10,5,-8,-15,80,68,51,30.15,29.89,8,3,8,0.00
2014-2-1,19,4,-11,9,-2,-16,83,73,54,30.11,29.95,5,2,5,0.00
2014-2-2,19,6,-6,4,-2,-12,88,70,40,30.28,30.08,8,3,8,0.00
2014-2-3,27,9,-8,10,0,-12,86,68,45,30.30,30.22,14,3,14,0.00
2014-2-4,27,12,1,9,4,-2,88,72,44,30.43,30.28,4,1,4,0.00
2014-2-5,15,11,4,8,3,-2,79,71,60,30.40,30.26,9,4,9,0.00
2014-2-6,8,-1,-9,-2,-8,-13,84,70,52,30.39,30.22,11,5,11,0.00
2014-2-7,15,2,-7,-3,-7,-12,83,65,42,30.23,30.14,14,6,14,0.00
2014-2-8,19,7,-7,5,0,-11,87,72,49,30.22,30.11,8,2,8,0.00
2014-2-9,22,10,-2,7,2,-10,87,69,49,30.27,30.10,10,3,10,0.00
2014-2-10,12,0,-9,-6,-10,-15,76,61,41,30.43,30.27,8,3,8,0.00
2014-2-11,20,2,-17,-1,-9,-21,81,62,34,30.47,30.25,11,2,11,0.00
2014-2-12,23,10,2,11,3,-6,89,75,60,30.26,29.99,12,3,12,0.00
2014-2-13,23,15,0,22,12,-3,97,90,81,29.99,29.48,17,3,17,0.00
2014-2-14,29,17,7,15,8,0,86,70,47,29.97,29.56,10,4,10,0.00
2014-2-15,24,8,-8,10,0,-12,90,73,43,30.06,29.93,8,2,9,0.00
2014-2-16,34,16,8,12,8,5,92,73,35,30.27,29.95,10,2,10,0.00
2014-2-17,25,18,10,24,16,5,97,91,79,30.25,29.73,17,3,17,0.00
2014-2-18,41,26,15,30,23,14,99,88,64,29.85,29.59,12,2,12,0.02
2014-2-19,36,30,24,27,24,20,86,78,62,29.85,29.65,8,4,9,0.01
2014-2-21,27,27,27,24,24,24,91,91,91,29.14,29.14,12,10,21,0.00
2014-2-24,17,11,8,2,0,-2,70,61,49,30.22,30.17,11,5,11,0.00
2014-2-25,11,5,-2,0,-4,-10,85,64,45,30.21,30.11,10,5,10,0.00
2014-2-26,11,1,-11,6,-9,-18,86,63,35,30.18,29.55,21,7,21,0.00
2014-2-27,7,-2,-13,-1,-16,-25,78,49,27,30.17,29.62,12,4,13,0.00
2014-2-28,12,-2,-22,9,-9,-28,91,70,43,30.17,29.96,12,2,12,0.00
2014-3-1,12,7,2,9,-1,-8,89,69,49,30.37,30.03,7,4,7,0.00
2014-3-2,8,0,-9,-7,-17,-21,63,46,26,30.45,30.35,8,4,8,0.00
2014-3-3,17,4,-13,3,-11,-21,75,52,33,30.50,30.32,8,2,8,0.00
2014-3-4,22,13,8,9,6,3,88,75,55,30.32,30.18,4,1,4,0.00
2014-3-5,23,11,0,6,1,-8,87,65,39,30.53,30.30,11,3,11,0.00
2014-3-6,30,10,-10,14,2,-14,82,70,48,30.48,30.00,16,3,16,0.00
2014-3-7,39,28,17,29,21,12,84,76,60,30.05,29.84,10,3,10,0.00
2014-3-8,40,26,17,25,14,10,79,62,31,30.27,30.05,8,4,8,0.00
2014-3-9,44,29,15,32,19,9,86,68,50,30.21,29.70,18,5,18,0.00
2014-3-10,58,44,34,37,34,-2,92,68,19,29.70,29.56,9,4,9,0.00
2014-3-11,48,42,34,33,30,26,80,63,46,29.89,29.67,5,2,5,0.00
2014-3-12,34,26,13,28,10,-9,92,57,18,30.12,29.87,8,3,8,0.00
2014-3-13,42,23,4,31,14,0,84,68,50,30.11,29.70,15,3,15,0.00
2014-3-14,47,40,35,35,32,25,90,74,61,29.79,29.48,14,5,14,0.00
2014-3-15,39,31,18,26,16,5,77,57,37,30.41,29.79,8,4,9,0.00
2014-3-16,25,14,4,9,0,-6,79,56,27,30.50,30.22,10,3,10,0.00
2014-3-17,30,20,11,19,12,4,83,71,51,30.19,29.77,16,4,16,0.00
2014-3-18,40,30,20,32,26,18,98,84,69,29.88,29.77,8,3,14,0.00
2014-3-19,41,33,30,35,30,25,99,88,73,29.92,29.68,9,3,9,0.15
2014-3-20,43,34,27,26,22,19,80,63,40,30.03,29.92,8,2,8,0.00
2014-3-21,44,32,19,33,26,17,97,78,55,30.03,29.76,16,2,16,0.00
2014-3-22,35,29,16,33,18,5,99,65,42,30.38,29.85,9,5,9,0.01
2014-3-23,24,16,7,8,4,2,78,60,40,30.45,30.36,8,4,8,0.00
2014-3-24,32,20,8,24,11,2,93,69,44,30.37,30.03,11,4,11,0.00
2014-3-25,23,16,11,15,5,-1,86,61,39,30.21,30.00,11,5,11,0.00
2014-3-26,33,21,6,27,9,0,96,61,42,30.24,29.91,15,4,17,0.00
2014-3-27,37,34,28,36,32,25,99,93,79,29.92,29.50,10,3,13,0.64
2014-3-28,47,36,30,33,27,23,99,74,41,30.22,29.51,11,3,11,0.04
2014-3-29,49,35,29,28,24,20,91,67,35,30.32,30.19,7,2,7,0.00
2014-3-30,59,41,26,38,29,22,87,65,37,30.25,29.96,13,3,15,0.00
2014-3-31,58,47,37,42,37,34,92,69,52,30.02,29.60,13,3,14,0.00
2014-4-1,54,34,27,41,27,18,91,74,59,30.06,29.54,18,7,18,0.00
2014-4-2,49,35,22,26,20,16,83,59,32,30.23,30.06,8,3,8,0.00
2014-4-3,35,32,28,28,24,21,87,73,59,30.20,29.83,11,6,11,0.01
2014-4-4,34,32,28,34,30,26,99,96,81,29.96,29.52,12,2,12,0.27
2014-4-5,52,38,25,32,27,24,94,68,40,30.17,29.95,10,3,10,0.06
2014-4-6,62,47,33,40,33,25,75,60,38,30.10,29.88,17,4,17,0.00
2014-4-7,62,47,35,47,40,32,96,77,49,29.93,29.70,5,1,7,0.02
2014-4-8,61,46,37,41,35,27,95,66,36,29.97,29.71,8,4,8,0.01
2014-4-9,62,46,28,33,28,23,89,54,23,29.99,29.66,19,4,19,0.00
2014-4-10,63,55,42,42,28,12,65,37,16,29.95,29.57,16,6,16,0.00
2014-4-11,60,47,36,43,30,19,75,52,34,30.05,29.95,14,2,14,0.00
2014-4-12,45,41,39,41,38,33,99,89,69,30.05,29.78,9,3,9,0.46
2014-4-13,51,43,37,47,42,36,99,96,82,29.86,29.70,10,3,10,0.53
2014-4-14,39,31,19,36,29,17,99,91,75,30.06,29.63,11,1,11,0.13
2014-4-15,40,24,11,31,17,9,95,77,48,30.19,30.05,0,0,0,0.00
2014-4-16,43,32,18,32,25,15,93,77,59,30.28,30.09,20,3,20,0.01
2014-4-17,53,42,34,40,34,27,98,76,57,30.32,30.05,15,4,15,0.04
2014-4-18,57,42,28,32,26,16,87,58,22,30.41,30.31,8,3,8,0.00
2014-4-19,62,46,31,40,33,27,92,63,41,30.44,30.16,17,6,17,0.00
2014-4-20,62,55,50,57,48,38,99,79,58,30.17,30.03,8,2,8,0.24
2014-4-21,72,59,50,61,51,34,99,78,27,30.03,29.80,11,3,12,0.05
2014-4-22,55,46,38,36,29,24,73,54,32,30.14,29.93,11,5,11,0.00
2014-4-23,93,42,28,71,27,21,94,57,31,30.22,29.66,11,2,11,0.00
2014-4-24,43,40,36,42,32,11,99,77,28,29.85,29.47,15,4,15,0.54
2014-4-25,61,48,39,46,40,31,99,77,45,29.62,29.44,20,4,20,0.02
2014-4-26,54,43,32,34,31,28,88,66,42,29.88,29.61,11,4,11,0.00
2014-4-27,43,38,33,38,33,25,99,82,64,29.90,29.70,22,5,22,0.31
2014-4-28,48,42,38,40,36,30,97,79,58,29.72,29.49,16,7,17,0.27
2014-4-29,42,40,37,42,39,36,99,98,92,29.52,29.32,12,4,15,0.63
2014-4-30,53,46,42,52,45,38,99,94,76,29.46,29.39,10,2,12,0.19
2014-5-1,52,45,39,45,42,39,99,90,70,29.51,29.37,6,2,7,0.05
2014-5-2,53,46,43,45,42,40,99,87,70,29.52,29.42,9,3,9,0.02
2014-5-3,60,50,43,44,39,31,99,72,34,29.59,29.38,11,4,11,0.01
2014-5-4,66,51,39,37,29,15,73,46,15,29.83,29.58,11,4,11,0.00
2014-5-5,60,47,40,40,37,33,84,67,44,29.87,29.75,11,4,11,0.00
2014-5-6,61,49,36,39,36,32,99,65,37,29.85,29.72,15,4,15,0.00
2014-5-7,51,47,43,48,43,34,99,86,59,29.81,29.60,16,5,16,0.09
2014-5-8,71,58,47,65,54,46,99,88,72,29.63,29.41,12,3,12,0.00
2014-5-9,70,60,50,64,53,43,91,78,63,29.52,29.31,17,6,17,0.00
2014-5-10,80,59,43,44,35,16,89,50,10,29.69,29.52,10,4,10,0.00
2014-5-11,81,65,55,64,52,36,99,65,37,29.70,29.63,13,2,13,0.09
2014-5-12,77,61,53,68,60,53,99,96,73,29.67,29.52,12,3,12,0.73
2014-5-13,66,55,47,65,50,40,99,82,58,29.87,29.47,14,5,14,0.01
2014-5-14,65,52,41,41,35,28,89,57,27,29.96,29.82,10,3,10,0.00
2014-5-15,57,47,38,41,32,27,87,57,36,29.85,29.73,10,4,10,0.01
2014-5-16,53,43,30,34,29,25,86,59,38,29.82,29.76,8,2,8,0.00
2014-5-17,65,50,34,36,31,26,87,52,26,29.80,29.74,12,3,12,0.00
2014-5-18,76,60,44,42,35,30,69,43,19,29.87,29.80,11,4,11,0.00
2014-5-19,67,56,50,52,44,36,99,68,38,29.92,29.71,21,4,21,0.94
2014-5-20,81,62,49,64,56,48,99,83,54,29.71,29.59,9,2,14,0.01
2014-5-21,77,65,53,64,54,46,99,71,35,30.02,29.59,11,3,11,0.00
2014-5-22,73,61,50,50,47,43,88,63,37,30.16,30.02,8,3,8,0.00
2014-5-23,76,61,44,49,45,40,88,59,35,30.24,30.16,11,2,11,0.00
2014-5-24,84,67,48,52,46,42,88,53,24,30.24,30.10,11,2,11,0.00
2014-5-25,89,70,50,54,48,41,85,51,19,30.14,29.96,13,2,13,0.00
2014-5-26,88,75,61,70,63,53,99,69,48,29.99,29.87,11,3,11,0.00
2014-5-27,78,68,64,70,64,53,99,88,59,29.99,29.87,12,2,12,0.00
2014-5-28,78,65,56,55,49,37,79,58,42,30.14,29.99,9,2,9,0.00
2014-5-29,85,67,49,59,52,44,99,65,27,30.19,30.10,8,2,9,0.00
2014-5-30,88,70,52,62,54,43,99,64,22,30.23,30.14,14,2,14,0.00
2014-5-31,90,73,54,60,55,51,99,59,27,30.19,30.02,14,3,14,0.00
2014-6-1,84,70,62,76,65,56,99,85,57,30.04,29.81,18,3,18,0.00
2014-6-2,82,71,67,71,67,61,99,90,59,29.83,29.67,16,4,16,0.11
2014-6-3,79,68,59,61,55,50,85,64,41,29.93,29.71,17,4,17,0.01
2014-6-4,82,68,56,57,53,45,99,64,31,29.93,29.87,15,2,15,0.00
2014-6-5,83,67,53,64,57,52,99,73,41,30.01,29.90,9,2,9,0.38
2014-6-6,88,72,60,62,58,54,87,64,32,29.99,29.92,9,2,9,0.00
2014-6-7,83,66,58,67,61,58,99,86,49,30.00,29.89,13,2,13,0.09
2014-6-8,82,66,54,59,50,40,99,64,25,30.10,29.97,8,2,11,0.01
2014-6-9,79,66,54,51,46,32,83,54,23,30.10,29.99,7,2,8,0.00
2014-6-10,76,64,50,56,52,49,99,68,40,30.03,29.92,7,2,7,0.00
2014-6-11,81,67,56,57,53,49,82,62,39,29.92,29.77,11,2,11,0.00
2014-6-12,74,63,54,62,54,47,99,75,43,29.84,29.71,11,4,11,0.00
2014-6-13,78,62,49,48,43,34,85,54,22,30.01,29.83,14,4,14,0.00
2014-6-14,78,62,47,54,49,44,96,65,41,30.10,29.91,14,3,14,0.00
2014-6-15,84,68,55,69,57,47,87,68,54,29.96,29.70,21,5,24,0.18
2014-6-16,90,74,59,65,58,52,95,64,28,30.00,29.86,13,2,14,0.00
2014-6-17,92,75,64,71,67,63,99,78,44,29.92,29.72,11,2,13,0.71
2014-6-18,80,70,64,70,67,64,99,92,70,30.08,29.85,17,3,17,0.70
2014-6-19,77,68,62,65,63,61,99,86,65,30.17,30.05,15,4,15,0.08
2014-6-20,78,65,59,68,63,59,99,93,71,30.06,29.95,8,2,8,0.05
2014-6-21,83,65,58,70,63,58,99,94,60,30.00,29.88,8,2,9,0.00
2014-6-22,78,68,63,67,65,63,99,91,68,29.96,29.86,8,2,8,0.00
2014-6-23,87,72,64,72,67,64,99,86,56,29.89,29.81,6,1,8,0.01
2014-6-24,91,75,64,71,66,56,99,77,35,29.96,29.84,7,1,7,0.00
2014-6-25,80,68,62,66,63,60,99,84,54,30.08,29.95,8,2,8,0.00
2014-6-26,79,68,58,64,61,58,99,80,57,30.11,30.01,8,2,8,0.00
2014-6-27,88,71,59,72,66,59,99,84,57,30.06,29.92,15,4,15,0.09
2014-6-28,88,78,70,75,72,68,98,81,62,29.98,29.83,17,5,17,0.00
2014-6-29,90,75,66,72,68,64,99,81,48,29.86,29.77,17,4,17,0.26
2014-6-30,85,72,66,75,69,65,99,89,68,29.81,29.49,19,4,22,0.09
2014-7-1,80,69,63,68,64,61,99,85,61,29.69,29.56,12,4,12,0.09
2014-7-2,93,64,58,71,57,44,99,78,42,30.03,29.69,8,3,8,0.05
2014-7-3,82,64,46,58,50,42,91,64,36,30.17,30.03,6,1,6,0.00
2014-7-4,84,68,50,59,50,42,95,60,26,30.31,30.17,11,2,11,0.00
2014-7-5,84,70,57,64,59,51,92,69,50,30.22,29.96,19,4,19,0.00
2014-7-6,80,71,65,75,68,62,99,91,78,29.98,29.63,16,3,16,0.00
2014-7-7,88,74,63,73,65,61,99,78,46,29.73,29.61,14,3,14,0.22
2014-7-8,78,67,60,67,62,57,99,85,52,29.83,29.57,10,3,10,0.05
2014-7-9,76,65,56,60,55,51,97,74,43,30.06,29.83,9,2,9,0.01
2014-7-10,84,70,50,63,58,49,99,69,43,30.15,30.06,11,3,11,0.00
2014-7-11,93,71,62,71,61,57,99,73,46,30.14,29.74,17,3,17,0.00
2014-7-12,80,71,65,73,67,61,99,86,73,29.97,29.81,7,2,7,0.04
2014-7-13,82,70,59,66,57,40,99,70,26,29.90,29.85,8,3,8,0.00
2014-7-14,74,62,54,60,54,50,93,76,46,29.89,29.83,9,2,9,0.02
2014-7-15,72,59,52,58,53,48,99,81,44,29.98,29.86,11,3,11,0.12
2014-7-16,80,62,46,55,50,46,99,70,30,30.04,29.98,4,1,6,0.00
2014-7-17,84,67,50,58,52,48,94,64,33,30.09,30.02,11,2,11,0.00
2014-7-18,82,68,52,64,58,50,96,72,51,30.16,30.05,9,2,9,0.00
2014-7-19,67,62,59,62,60,58,99,93,81,30.07,30.04,6,1,6,0.00
2014-7-20,85,73,61,68,64,60,96,75,54,30.03,29.95,11,3,11,0.00
2014-7-21,91,82,66,73,70,64,96,70,53,30.03,29.98,11,4,11,0.00
2014-7-22,93,80,68,78,70,62,93,76,45,30.08,29.86,12,4,12,0.00
2014-7-23,83,69,57,62,57,52,99,69,38,30.22,30.07,7,2,52,0.00
2014-7-24,84,68,53,59,55,50,99,67,34,30.21,29.99,9,1,9,0.00
2014-7-25,72,66,61,65,62,58,96,84,74,30.02,29.85,12,2,12,0.02
2014-7-26,87,74,64,73,68,63,99,83,57,29.88,29.76,8,2,8,0.00
2014-7-27,80,69,59,70,63,53,99,80,53,30.00,29.71,9,3,9,0.02
2014-7-28,79,64,51,57,54,51,99,72,39,30.13,30.00,6,2,6,0.00
2014-7-29,82,67,58,63,58,55,99,76,43,30.05,29.96,7,2,7,0.11
2014-7-30,82,67,54,62,55,45,99,71,30,30.07,29.98,8,1,8,0.00
2014-7-31,86,70,59,66,61,57,99,78,44,30.00,29.95,8,2,8,0.00
2014-8-1,87,67,58,69,62,58,99,87,46,30.10,29.99,8,1,8,0.07
2014-8-2,92,72,55,68,60,52,99,72,30,30.17,30.08,8,1,8,0.01
2014-8-3,92,75,60,70,64,58,99,73,34,30.12,30.03,8,2,8,0.00
2014-8-4,77,68,62,69,65,62,99,92,73,30.13,30.04,11,2,11,0.09
2014-8-5,84,70,60,65,61,57,99,76,42,30.12,30.06,7,1,7,0.00
2014-8-6,89,72,57,64,60,55,99,70,33,30.10,30.05,4,1,4,0.00
2014-8-7,85,70,56,61,58,52,99,70,33,30.16,30.07,11,2,11,0.00
2014-8-8,88,70,9,63,58,-37,99,71,10,30.17,30.08,10,2,10,0.00
2014-8-9,86,70,56,64,60,56,99,74,42,30.18,30.10,11,2,11,0.00
2014-8-10,87,70,56,65,60,56,99,75,40,30.13,30.00,8,1,8,0.00
2014-8-11,84,67,60,67,63,60,99,88,52,30.01,29.85,9,2,9,1.37
2014-8-12,78,64,55,60,54,48,99,74,39,29.97,29.87,11,4,12,0.02
2014-8-13,84,69,58,63,56,49,95,65,33,30.11,29.95,5,2,5,0.00
2014-8-14,80,65,47,53,50,44,98,62,30,30.16,30.05,6,1,6,0.00
2014-8-15,85,66,48,65,56,48,99,73,38,30.06,29.90,6,1,8,0.00
2014-8-16,89,71,64,73,68,64,99,90,57,29.97,29.85,8,2,11,0.32
2014-8-17,78,65,57,65,60,56,99,84,54,30.07,29.96,8,2,8,0.00
2014-8-18,75,63,57,71,62,57,99,97,84,29.98,29.70,11,2,11,1.24
2014-8-19,81,69,63,72,65,62,99,91,62,29.77,29.63,8,2,8,0.43
2014-8-20,83,67,60,67,63,60,99,89,56,29.95,29.76,5,1,5,0.01
2014-8-21,71,66,61,71,66,61,99,99,98,29.98,29.89,8,1,8,0.22
2014-8-22,88,74,67,80,72,67,99,94,70,30.00,29.89,7,1,7,0.17
2014-8-23,77,72,70,76,72,69,99,99,96,30.04,29.97,6,2,6,0.00
2014-8-24,81,72,67,74,70,67,99,93,75,30.05,29.96,12,3,12,0.00
2014-8-25,89,77,66,76,73,66,99,88,64,30.08,29.93,11,2,11,0.83
2014-8-26,80,69,62,73,61,56,99,77,48,30.15,29.96,7,2,7,0.00
2014-8-27,80,66,-2,64,58,-5,98,76,49,30.21,30.11,49,1,49,0.00
2014-8-28,74,65,55,64,61,55,99,87,70,30.16,30.03,11,2,11,0.01
2014-8-29,86,74,59,76,70,59,99,87,70,30.04,29.79,9,3,9,0.40
2014-8-30,79,69,63,73,68,62,99,96,79,29.91,29.73,7,2,7,1.32
2014-8-31,85,70,62,71,66,62,99,89,58,29.95,29.77,8,2,8,0.01
2014-9-1,77,69,62,71,66,60,99,89,69,29.80,29.65,9,2,9,0.12
2014-9-2,81,66,57,69,62,57,99,86,51,29.91,29.79,7,2,8,0.13
2014-9-3,86,59,8,65,40,7,99,51,35,29.99,29.83,49,23,49,0.00
2014-9-4,77,69,66,70,68,65,99,95,76,29.94,29.80,14,3,14,0.71
2014-9-5,74,67,58,74,63,55,99,87,64,30.11,29.78,9,3,9,0.02
2014-9-6,79,62,50,58,54,50,99,78,42,30.16,30.11,8,2,8,0.00
2014-9-7,84,66,51,63,55,51,99,74,37,30.18,30.09,6,1,8,0.00
2014-9-8,77,64,53,61,56,53,99,78,46,30.11,29.95,13,2,15,0.00
2014-9-9,85,67,-10,69,60,-52,99,80,10,29.98,29.83,8,2,8,0.00
2014-9-10,69,60,45,69,59,42,99,97,86,29.93,29.47,12,3,12,0.79
2014-9-11,60,48,43,46,42,39,96,81,56,30.31,29.93,7,3,9,0.00
2014-9-12,51,44,39,44,42,39,99,93,68,30.41,30.30,5,1,5,0.15
2014-9-13,62,48,39,50,41,37,99,80,41,30.34,30.25,11,1,12,0.00
2014-9-14,69,54,43,53,47,42,96,77,49,30.28,30.06,17,3,17,0.00
2014-9-15,67,54,48,54,50,42,99,86,53,30.17,30.09,6,1,6,0.08
2014-9-16,71,53,39,49,44,39,99,75,41,30.19,30.04,7,2,8,0.00
2014-9-17,76,58,44,55,50,44,98,77,44,30.05,29.95,6,2,6,0.00
2014-9-18,60,50,43,52,46,42,99,88,70,30.22,30.06,6,2,8,0.00
2014-9-19,74,60,48,58,53,48,99,80,53,30.15,29.80,17,5,21,0.00
2014-9-20,78,68,58,68,62,56,99,84,63,29.80,29.69,9,4,14,0.35
2014-9-21,63,55,45,58,50,42,99,84,52,30.18,29.67,9,3,9,0.07
2014-9-22,72,54,40,54,48,39,99,80,48,30.24,30.15,7,1,7,0.00
2014-9-23,81,61,47,62,53,47,99,78,41,30.30,30.20,8,1,8,0.00
2014-9-24,75,59,48,58,54,48,99,85,55,30.33,30.24,10,1,10,0.00
2014-9-25,82,64,55,61,57,52,99,81,37,30.29,30.21,6,1,6,0.00
2014-9-26,93,62,49,71,55,48,99,81,44,30.29,29.60,8,1,8,0.00
2014-9-27,85,66,52,65,58,51,99,80,43,29.97,29.85,7,1,10,0.00
2014-9-28,89,68,53,66,60,53,99,79,42,29.89,29.74,7,1,7,0.00
2014-9-29,69,57,45,63,55,41,99,93,80,29.80,29.68,5,2,8,0.14